Zurück zum Katalog

FLOCK 4G 21

AktivWissenschaftSSO
NORAD 62651·PAYLOAD·🇺🇸 United States

Gestartet Jan 14, 2025 von Vandenberg Space Force Base

Loading…

Nächste Überflüge (nächste 24 Stunden)

TLE

AktuellSource: Space-Track

Epoche: Sep 14, 2026, 15:41 UTC

1 62651U 25009AU  26257.65409937  .00035788  00000-0  98881-3 0  9999
2 62651  97.3934 340.2821 0001509  32.4186 327.7151 15.36962797 92671

Verfolge FLOCK 4G 21 in Echtzeit mit AllMySat

Download on the App Store